����������;��������(kVARh)
2019-06-24 00:00;1,65
2019-06-24 00:15;2,15
2019-06-24 00:30;3,65
2019-06-24 00:45;3,05
2019-06-24 01:00;2
2019-06-24 01:15;0
2019-06-24 01:30;0,15
2019-06-24 01:45;0,05
2019-06-24 02:00;0
2019-06-24 02:15;0,15
2019-06-24 02:30;0,05
2019-06-24 02:45;0,1
2019-06-24 03:00;0
2019-06-24 03:15;0,1
2019-06-24 03:30;1,25
2019-06-24 03:45;1,5
2019-06-24 04:00;0,85
2019-06-24 04:15;0
2019-06-24 04:30;0
2019-06-24 04:45;0
2019-06-24 05:00;0
2019-06-24 05:15;0
2019-06-24 05:30;0
2019-06-24 05:45;0,05
2019-06-24 06:00;0,15
2019-06-24 06:15;0
2019-06-24 06:30;0,05
2019-06-24 06:45;0,35
2019-06-24 07:00;0,3
2019-06-24 07:15;0,2
2019-06-24 07:30;38,7
2019-06-24 07:45;42,8
2019-06-24 08:00;59,95
2019-06-24 08:15;60,65
2019-06-24 08:30;45,35
2019-06-24 08:45;55,65
2019-06-24 09:00;57,5
2019-06-24 09:15;59,95
2019-06-24 09:30;53,9
2019-06-24 09:45;68,65
2019-06-24 10:00;76,85
2019-06-24 10:15;63,65
2019-06-24 10:30;82,5
2019-06-24 10:45;79,4
2019-06-24 11:00;88,25
2019-06-24 11:15;86,65
2019-06-24 11:30;103,5
2019-06-24 11:45;106,3
2019-06-24 12:00;89,55
2019-06-24 12:15;104,15
2019-06-24 12:30;106,5
2019-06-24 12:45;91,4
2019-06-24 13:00;102,7
2019-06-24 13:15;105,4
2019-06-24 13:30;98,45
2019-06-24 13:45;118,55
2019-06-24 14:00;109,15
2019-06-24 14:15;98,85
2019-06-24 14:30;115
2019-06-24 14:45;103,25
2019-06-24 15:00;91,5
2019-06-24 15:15;101,25
2019-06-24 15:30;104,6
2019-06-24 15:45;88,3
2019-06-24 16:00;3,85
2019-06-24 16:15;0
2019-06-24 16:30;0
2019-06-24 16:45;0
2019-06-24 17:00;0
2019-06-24 17:15;0
2019-06-24 17:30;0
2019-06-24 17:45;0
2019-06-24 18:00;0
2019-06-24 18:15;66,05
2019-06-24 18:30;94,65
2019-06-24 18:45;65,75
2019-06-24 19:00;53,8
2019-06-24 19:15;51
2019-06-24 19:30;45,6
2019-06-24 19:45;45,4
2019-06-24 20:00;46,2
2019-06-24 20:15;42,85
2019-06-24 20:30;42,55
2019-06-24 20:45;41,85
2019-06-24 21:00;40,3
2019-06-24 21:15;44,05
2019-06-24 21:30;8
2019-06-24 21:45;0
2019-06-24 22:00;30,05
2019-06-24 22:15;48,4
2019-06-24 22:30;37,5
2019-06-24 22:45;31,2
2019-06-24 23:00;30,55
2019-06-24 23:15;30,7
2019-06-24 23:30;31,15
2019-06-24 23:45;30,05
2019-06-25 00:00;30,8
2019-06-25 00:15;28,15
2019-06-25 00:30;20,65
2019-06-25 00:45;17,05
2019-06-25 01:00;16,15
2019-06-25 01:15;15,65
2019-06-25 01:30;11,4
2019-06-25 01:45;9,3
2019-06-25 02:00;10,4
2019-06-25 02:15;9,2
2019-06-25 02:30;10,1
2019-06-25 02:45;10,95
2019-06-25 03:00;9,35
2019-06-25 03:15;9,9
2019-06-25 03:30;10
2019-06-25 03:45;11
2019-06-25 04:00;14,7
2019-06-25 04:15;13,75
2019-06-25 04:30;11,9
2019-06-25 04:45;12,6
2019-06-25 05:00;11,9
2019-06-25 05:15;11,4
2019-06-25 05:30;12,3
2019-06-25 05:45;12,9
2019-06-25 06:00;13,3
2019-06-25 06:15;13,65
2019-06-25 06:30;13,25
2019-06-25 06:45;12,45
2019-06-25 07:00;5,65
2019-06-25 07:15;7,85
2019-06-25 07:30;21,7
2019-06-25 07:45;31,5
2019-06-25 08:00;41,05
2019-06-25 08:15;45,3
2019-06-25 08:30;47,1
2019-06-25 08:45;47,6
2019-06-25 09:00;46,4
2019-06-25 09:15;52,4
2019-06-25 09:30;54,2
2019-06-25 09:45;56,95
2019-06-25 10:00;55,55
2019-06-25 10:15;58,5
2019-06-25 10:30;59,9
2019-06-25 10:45;69,9
2019-06-25 11:00;76,3
2019-06-25 11:15;69,7
2019-06-25 11:30;72,7
2019-06-25 11:45;78,6
2019-06-25 12:00;80,3
2019-06-25 12:15;76,15
2019-06-25 12:30;78,7
2019-06-25 12:45;82,95
2019-06-25 13:00;82,3
2019-06-25 13:15;89,9
2019-06-25 13:30;82,3
2019-06-25 13:45;89,3
2019-06-25 14:00;88,5
2019-06-25 14:15;76,5
2019-06-25 14:30;84,3
2019-06-25 14:45;80,85
2019-06-25 15:00;86,5
2019-06-25 15:15;76,15
2019-06-25 15:30;67,8
2019-06-25 15:45;72,35
2019-06-25 16:00;25,85
2019-06-25 16:15;52,7
2019-06-25 16:30;49,5
2019-06-25 16:45;43
2019-06-25 17:00;47,6
2019-06-25 17:15;45,05
2019-06-25 17:30;52,75
2019-06-25 17:45;50
2019-06-25 18:00;39,85
2019-06-25 18:15;46,1
2019-06-25 18:30;40,95
2019-06-25 18:45;37,4
2019-06-25 19:00;39,5
2019-06-25 19:15;43,35
2019-06-25 19:30;44,3
2019-06-25 19:45;32,5
2019-06-25 20:00;31,1
2019-06-25 20:15;25,15
2019-06-25 20:30;25,1
2019-06-25 20:45;26,15
2019-06-25 21:00;26,05
2019-06-25 21:15;25,1
2019-06-25 21:30;26,6
2019-06-25 21:45;20
2019-06-25 22:00;13,55
2019-06-25 22:15;11,85
2019-06-25 22:30;11,1
2019-06-25 22:45;10,35
2019-06-25 23:00;6,55
2019-06-25 23:15;5,2
2019-06-25 23:30;5,5
2019-06-25 23:45;7,65
2019-06-26 00:00;6
2019-06-26 00:15;5,65
2019-06-26 00:30;6,7
2019-06-26 00:45;8,05
2019-06-26 01:00;0,25
2019-06-26 01:15;0,1
2019-06-26 01:30;0,3
2019-06-26 01:45;0,25
2019-06-26 02:00;0,85
2019-06-26 02:15;2,05
2019-06-26 02:30;1,95
2019-06-26 02:45;0,05
2019-06-26 03:00;0
2019-06-26 03:15;0
2019-06-26 03:30;0
2019-06-26 03:45;0
2019-06-26 04:00;0
2019-06-26 04:15;0
2019-06-26 04:30;0
2019-06-26 04:45;0,05
2019-06-26 05:00;0
2019-06-26 05:15;0
2019-06-26 05:30;0
2019-06-26 05:45;0,05
2019-06-26 06:00;0
2019-06-26 06:15;1,4
2019-06-26 06:30;4,05
2019-06-26 06:45;2,9
2019-06-26 07:00;2,15
2019-06-26 07:15;1,55
2019-06-26 07:30;29,1
2019-06-26 07:45;22,75
2019-06-26 08:00;24,15
2019-06-26 08:15;31,6
2019-06-26 08:30;32,5
2019-06-26 08:45;33,8
2019-06-26 09:00;46,7
2019-06-26 09:15;55,05
2019-06-26 09:30;50,35
2019-06-26 09:45;58,85
2019-06-26 10:00;58,15
2019-06-26 10:15;64,05
2019-06-26 10:30;67,35
2019-06-26 10:45;71,65
2019-06-26 11:00;75,5
2019-06-26 11:15;72,2
2019-06-26 11:30;72,2
2019-06-26 11:45;68,75
2019-06-26 12:00;75,95
2019-06-26 12:15;71,9
2019-06-26 12:30;74,6
2019-06-26 12:45;72,75
2019-06-26 13:00;72,4
2019-06-26 13:15;70,8
2019-06-26 13:30;79,7
2019-06-26 13:45;72,35
2019-06-26 14:00;71,55
2019-06-26 14:15;80,5
2019-06-26 14:30;70,1
2019-06-26 14:45;76,1
2019-06-26 15:00;76
2019-06-26 15:15;72,7
2019-06-26 15:30;71,2
2019-06-26 15:45;57,7
2019-06-26 16:00;68,4
2019-06-26 16:15;59,75
2019-06-26 16:30;56,25
2019-06-26 16:45;56,8
2019-06-26 17:00;57,1
2019-06-26 17:15;51,25
2019-06-26 17:30;49,7
2019-06-26 17:45;45,9
2019-06-26 18:00;45,75
2019-06-26 18:15;42,75
2019-06-26 18:30;49,9
2019-06-26 18:45;48,55
2019-06-26 19:00;47,6
2019-06-26 19:15;46,55
2019-06-26 19:30;45,55
2019-06-26 19:45;34,4
2019-06-26 20:00;28,65
2019-06-26 20:15;32,85
2019-06-26 20:30;32,35
2019-06-26 20:45;33,15
2019-06-26 21:00;31
2019-06-26 21:15;31,8
2019-06-26 21:30;31,1
2019-06-26 21:45;26,75
2019-06-26 22:00;22,55
2019-06-26 22:15;20
2019-06-26 22:30;18
2019-06-26 22:45;15,9
2019-06-26 23:00;13,35
2019-06-26 23:15;12,35
2019-06-26 23:30;14,4
2019-06-26 23:45;14,7
2019-06-27 00:00;8,35
2019-06-27 00:15;9,75
2019-06-27 00:30;10,45
2019-06-27 00:45;9,65
2019-06-27 01:00;3,75
2019-06-27 01:15;1,95
2019-06-27 01:30;2,55
2019-06-27 01:45;5,45
2019-06-27 02:00;4,4
2019-06-27 02:15;5,2
2019-06-27 02:30;6,55
2019-06-27 02:45;5,95
2019-06-27 03:00;4,85
2019-06-27 03:15;4,75
2019-06-27 03:30;5,25
2019-06-27 03:45;6,8
2019-06-27 04:00;5,95
2019-06-27 04:15;6,3
2019-06-27 04:30;6,5
2019-06-27 04:45;7,95
2019-06-27 05:00;9,7
2019-06-27 05:15;9,05
2019-06-27 05:30;10
2019-06-27 05:45;9,1
2019-06-27 06:00;8,4
2019-06-27 06:15;7,3
2019-06-27 06:30;7,8
2019-06-27 06:45;11,4
2019-06-27 07:00;14,4
2019-06-27 07:15;15,65
2019-06-27 07:30;28,1
2019-06-27 07:45;33,3
2019-06-27 08:00;39,45
2019-06-27 08:15;45,8
2019-06-27 08:30;39,55
2019-06-27 08:45;43,8
2019-06-27 09:00;45,25
2019-06-27 09:15;54,75
2019-06-27 09:30;52,65
2019-06-27 09:45;62,8
2019-06-27 10:00;64,3
2019-06-27 10:15;68,75
2019-06-27 10:30;61,9
2019-06-27 10:45;59,85
2019-06-27 11:00;70,4
2019-06-27 11:15;64,05
2019-06-27 11:30;68,25
2019-06-27 11:45;66,65
2019-06-27 12:00;71,25
2019-06-27 12:15;59
2019-06-27 12:30;71,05
2019-06-27 12:45;69,6
2019-06-27 13:00;58,55
2019-06-27 13:15;65,4
2019-06-27 13:30;67,1
2019-06-27 13:45;60,9
2019-06-27 14:00;66,5
2019-06-27 14:15;65,1
2019-06-27 14:30;59,75
2019-06-27 14:45;65,65
2019-06-27 15:00;59,4
2019-06-27 15:15;67,7
2019-06-27 15:30;66,45
2019-06-27 15:45;55,55
2019-06-27 16:00;64,8
2019-06-27 16:15;60,7
2019-06-27 16:30;57,65
2019-06-27 16:45;45,35
2019-06-27 17:00;49,65
2019-06-27 17:15;37,25
2019-06-27 17:30;43,3
2019-06-27 17:45;40
2019-06-27 18:00;35,8
2019-06-27 18:15;41,65
2019-06-27 18:30;33,15
2019-06-27 18:45;42,05
2019-06-27 19:00;42,65
2019-06-27 19:15;41,35
2019-06-27 19:30;29,5
2019-06-27 19:45;21,5
2019-06-27 20:00;23,35
2019-06-27 20:15;24,7
2019-06-27 20:30;20,05
2019-06-27 20:45;18,05
2019-06-27 21:00;13,2
2019-06-27 21:15;13,75
2019-06-27 21:30;12,95
2019-06-27 21:45;9,75
2019-06-27 22:00;11,85
2019-06-27 22:15;12,05
2019-06-27 22:30;15,65
2019-06-27 22:45;17,6
2019-06-27 23:00;19,55
2019-06-27 23:15;17,4
2019-06-27 23:30;20,45
2019-06-27 23:45;20,35
2019-06-28 00:00;17,95
2019-06-28 00:15;20,5
2019-06-28 00:30;21,05
2019-06-28 00:45;19,9
2019-06-28 01:00;16
2019-06-28 01:15;14,55
2019-06-28 01:30;8,75
2019-06-28 01:45;2,95
2019-06-28 02:00;1,3
2019-06-28 02:15;0,5
2019-06-28 02:30;0,45
2019-06-28 02:45;0,6
2019-06-28 03:00;1,05
2019-06-28 03:15;1,05
2019-06-28 03:30;0,75
2019-06-28 03:45;0,95
2019-06-28 04:00;1,55
2019-06-28 04:15;2,95
2019-06-28 04:30;2,45
2019-06-28 04:45;3,2
2019-06-28 05:00;2,85
2019-06-28 05:15;4,45
2019-06-28 05:30;5,6
2019-06-28 05:45;6,8
2019-06-28 06:00;6,05
2019-06-28 06:15;4,45
2019-06-28 06:30;6,15
2019-06-28 06:45;4,85
2019-06-28 07:00;5,75
2019-06-28 07:15;8,05
2019-06-28 07:30;22,4
2019-06-28 07:45;28,3
2019-06-28 08:00;35,3
2019-06-28 08:15;44,5
2019-06-28 08:30;40,5
2019-06-28 08:45;43,25
2019-06-28 09:00;43,4
2019-06-28 09:15;40,35
2019-06-28 09:30;52,3
2019-06-28 09:45;51,85
2019-06-28 10:00;58,75
2019-06-28 10:15;73,7
2019-06-28 10:30;60,8
2019-06-28 10:45;66,25
2019-06-28 11:00;59,25
2019-06-28 11:15;62,5
2019-06-28 11:30;66,7
2019-06-28 11:45;59,3
2019-06-28 12:00;70,85
2019-06-28 12:15;71,25
2019-06-28 12:30;61,2
2019-06-28 12:45;68,55
2019-06-28 13:00;67,35
2019-06-28 13:15;61,55
2019-06-28 13:30;70,75
2019-06-28 13:45;68,2
2019-06-28 14:00;63,3
2019-06-28 14:15;72,6
2019-06-28 14:30;61,25
2019-06-28 14:45;64,25
2019-06-28 15:00;61,4
2019-06-28 15:15;64,15
2019-06-28 15:30;62,05
2019-06-28 15:45;51,4
2019-06-28 16:00;59
2019-06-28 16:15;52,95
2019-06-28 16:30;51,45
2019-06-28 16:45;39,8
2019-06-28 17:00;51
2019-06-28 17:15;37,15
2019-06-28 17:30;40,8
2019-06-28 17:45;36,45
2019-06-28 18:00;34,2
2019-06-28 18:15;33,9
2019-06-28 18:30;34,3
2019-06-28 18:45;34,1
2019-06-28 19:00;33,35
2019-06-28 19:15;32,55
2019-06-28 19:30;30,9
2019-06-28 19:45;21,05
2019-06-28 20:00;25,45
2019-06-28 20:15;25,95
2019-06-28 20:30;29,05
2019-06-28 20:45;26,55
2019-06-28 21:00;24,35
2019-06-28 21:15;23,35
2019-06-28 21:30;23,25
2019-06-28 21:45;22,3
2019-06-28 22:00;16,8
2019-06-28 22:15;15,2
2019-06-28 22:30;15
2019-06-28 22:45;15
2019-06-28 23:00;17,1
2019-06-28 23:15;13,8
2019-06-28 23:30;14,4
2019-06-28 23:45;14,9
2019-06-29 00:00;12,85
2019-06-29 00:15;16,4
2019-06-29 00:30;15,55
2019-06-29 00:45;13,4
2019-06-29 01:00;12,1
2019-06-29 01:15;14,85
2019-06-29 01:30;12,25
2019-06-29 01:45;12,5
2019-06-29 02:00;8,55
2019-06-29 02:15;1,75
2019-06-29 02:30;1,8
2019-06-29 02:45;3,6
2019-06-29 03:00;4,05
2019-06-29 03:15;2,35
2019-06-29 03:30;3,5
2019-06-29 03:45;4,35
2019-06-29 04:00;3,95
2019-06-29 04:15;6
2019-06-29 04:30;5,6
2019-06-29 04:45;4,65
2019-06-29 05:00;4,8
2019-06-29 05:15;4,85
2019-06-29 05:30;4,7
2019-06-29 05:45;6,55
2019-06-29 06:00;5,15
2019-06-29 06:15;2,05
2019-06-29 06:30;1,1
2019-06-29 06:45;0,15
2019-06-29 07:00;0,05
2019-06-29 07:15;0
2019-06-29 07:30;0,05
2019-06-29 07:45;0
2019-06-29 08:00;0
2019-06-29 08:15;0
2019-06-29 08:30;0
2019-06-29 08:45;0
2019-06-29 09:00;0
2019-06-29 09:15;0
2019-06-29 09:30;0
2019-06-29 09:45;0
2019-06-29 10:00;0,6
2019-06-29 10:15;2,95
2019-06-29 10:30;3,5
2019-06-29 10:45;2,25
2019-06-29 11:00;1,35
2019-06-29 11:15;2,05
2019-06-29 11:30;1,9
2019-06-29 11:45;1,8
2019-06-29 12:00;4,7
2019-06-29 12:15;3,7
2019-06-29 12:30;3,7
2019-06-29 12:45;3,3
2019-06-29 13:00;3,55
2019-06-29 13:15;3,1
2019-06-29 13:30;2,7
2019-06-29 13:45;3
2019-06-29 14:00;2,05
2019-06-29 14:15;1,3
2019-06-29 14:30;2,75
2019-06-29 14:45;2,6
2019-06-29 15:00;0,25
2019-06-29 15:15;3,25
2019-06-29 15:30;3,25
2019-06-29 15:45;3,6
2019-06-29 16:00;2,15
2019-06-29 16:15;2,2
2019-06-29 16:30;2,1
2019-06-29 16:45;1,85
2019-06-29 17:00;0,85
2019-06-29 17:15;1,55
2019-06-29 17:30;1,1
2019-06-29 17:45;0,85
2019-06-29 18:00;0,95
2019-06-29 18:15;1,3
2019-06-29 18:30;1,3
2019-06-29 18:45;1,75
2019-06-29 19:00;4,25
2019-06-29 19:15;5,55
2019-06-29 19:30;6,85
2019-06-29 19:45;7,75
2019-06-29 20:00;5,85
2019-06-29 20:15;6,4
2019-06-29 20:30;7
2019-06-29 20:45;5,65
2019-06-29 21:00;5,35
2019-06-29 21:15;5,85
2019-06-29 21:30;4,6
2019-06-29 21:45;3,1
2019-06-29 22:00;1,35
2019-06-29 22:15;1,5
2019-06-29 22:30;1,65
2019-06-29 22:45;0,35
2019-06-29 23:00;2,55
2019-06-29 23:15;2,45
2019-06-29 23:30;1,8
2019-06-29 23:45;2,8
2019-06-30 00:00;0,05
2019-06-30 00:15;0
2019-06-30 00:30;0
2019-06-30 00:45;0,4
2019-06-30 01:00;0,25
2019-06-30 01:15;0,75
2019-06-30 01:30;0,85
2019-06-30 01:45;1,35
2019-06-30 02:00;2,7
2019-06-30 02:15;3,65
2019-06-30 02:30;2,95
2019-06-30 02:45;3,55
2019-06-30 03:00;1,7
2019-06-30 03:15;0,7
2019-06-30 03:30;1,4
2019-06-30 03:45;2,85
2019-06-30 04:00;4,4
2019-06-30 04:15;5
2019-06-30 04:30;4,55
2019-06-30 04:45;4,5
2019-06-30 05:00;4,55
2019-06-30 05:15;2,6
2019-06-30 05:30;1,75
2019-06-30 05:45;1,7
2019-06-30 06:00;1,95
2019-06-30 06:15;2,15
2019-06-30 06:30;2,1
2019-06-30 06:45;0,95
2019-06-30 07:00;0,55
2019-06-30 07:15;0
2019-06-30 07:30;0
2019-06-30 07:45;0,05
2019-06-30 08:00;0
2019-06-30 08:15;0
2019-06-30 08:30;0,45
2019-06-30 08:45;0,7
2019-06-30 09:00;0,3
2019-06-30 09:15;0,55
2019-06-30 09:30;0,05
2019-06-30 09:45;1
2019-06-30 10:00;0,85
2019-06-30 10:15;0,95
2019-06-30 10:30;3,35
2019-06-30 10:45;4,95
2019-06-30 11:00;4,8
2019-06-30 11:15;9,95
2019-06-30 11:30;10,25
2019-06-30 11:45;10,4
2019-06-30 12:00;11,85
2019-06-30 12:15;11,85
2019-06-30 12:30;11,2
2019-06-30 12:45;10,75
2019-06-30 13:00;10,2
2019-06-30 13:15;10,35
2019-06-30 13:30;7,9
2019-06-30 13:45;9,45
2019-06-30 14:00;8,65
2019-06-30 14:15;8,2
2019-06-30 14:30;8,65
2019-06-30 14:45;9,55
2019-06-30 15:00;11,5
2019-06-30 15:15;10,8
2019-06-30 15:30;6,9
2019-06-30 15:45;8,3
2019-06-30 16:00;7,25
2019-06-30 16:15;6,55
2019-06-30 16:30;8,65
2019-06-30 16:45;7,65
2019-06-30 17:00;6,4
2019-06-30 17:15;8
2019-06-30 17:30;7,6
2019-06-30 17:45;6,7
2019-06-30 18:00;6,5
2019-06-30 18:15;9,6
2019-06-30 18:30;9,45
2019-06-30 18:45;9,95
2019-06-30 19:00;8,5
2019-06-30 19:15;10,05
2019-06-30 19:30;11,05
2019-06-30 19:45;10,05
2019-06-30 20:00;9,15
2019-06-30 20:15;9,25
2019-06-30 20:30;9,55
2019-06-30 20:45;7,9
2019-06-30 21:00;8,75
2019-06-30 21:15;7,55
2019-06-30 21:30;5,9
2019-06-30 21:45;5,7
2019-06-30 22:00;5,2
2019-06-30 22:15;3,85
2019-06-30 22:30;4,5
2019-06-30 22:45;7,05
2019-06-30 23:00;7,5
2019-06-30 23:15;7,6
2019-06-30 23:30;7,85
2019-06-30 23:45;5,45

